レモン-パンスターズ彗星

C/2014 W5 ( Lemmon-PanSTARRS )

English version
Home page
Updated on March 22, 2020

---------------------------------------------------------------------

・ プロフィール

発見日 2014年11月16日、20日
発見光度 19.7等、21.4等
発見者 A. D. Grauer (Mount Lemmon Survey), Pan-STARRS 1 telescope (Haleakala)

・ 写真集

・ 軌道要素

Epoch 2016 Feb. 22.0 TT = JDT 2457440.5                                         
T 2016 Feb. 10.54837 TT                                 Bell                    
q   2.3984795            (2000.0)            P               Q                  
z  +0.0086246      Peri.  281.25375     +0.65314384     -0.55528759             
 +/-0.0000245      Node   245.34541     -0.25105832     -0.80023491             
e   0.9793140      Incl.  145.49491     -0.71440384     -0.22645040             
From 49 observations 2014 Oct. 26-2015 Jan. 22, mean residual 0".5.             

・ 星図

・ 光度変化

        m1 = 12.5 + 5 logΔ + 10.0 log r(t + 350)

        ※ 灰色の曲線は、m1 = 9.5 + 5 logΔ + 10.0 log r の光度曲線です。

---------------------------------------------------------------------

軌道要素はM.P.E.C. 2020-E26に掲載されたものです。
星図はステラナビゲータ Ver.8 (アストロアーツ) で作成したものです。
光度グラフはComet for Windowsで作成したものです。

---------------------------------------------------------------------

Copyright(C) Seiichi Yoshida (comet@aerith.net). All rights reserved.